Location: Ravencliff
(37.6982°N, 81.4812°W)
Time: 11:24:09
(UTC+00:00)

ACS3 Solar Sail - Visible Passes

Search period start: 18 April 2026 00:00
Search period end: 28 April 2026 00:00
Orbit: 872 x 975 km, 97.2° (Epoch: 17 April)

Date Brightness Start Highest point End Pass type
(mag) Time Alt. Az. Time Alt. Az. Time Alt. Az.
18 Apr 3.7 05:48:02 10° NNE 05:50:27 22° NE 05:50:27 22° NE visible
18 Apr 3.1 07:30:23 10° N 07:34:00 29° NW 07:34:00 29° NW visible
19 Apr 3.5 05:57:15 10° NNE 06:00:05 26° NE 06:00:05 26° NE visible
19 Apr 3.2 07:40:01 10° NNW 07:43:37 26° NW 07:43:37 26° NW visible
20 Apr 3.3 06:06:25 10° NNE 06:09:37 30° NE 06:09:37 30° NE visible
20 Apr 3.3 07:49:38 10° NNW 07:53:09 22° NW 07:53:09 22° NW visible
21 Apr 3.1 06:15:35 10° NNE 06:19:05 35° NNE 06:19:05 35° NNE visible
21 Apr 3.4 07:59:14 10° NNW 08:02:36 19° NW 08:02:36 19° NW visible
22 Apr 2.9 06:24:41 10° NNE 06:28:27 40° NNE 06:28:27 40° NNE visible
22 Apr 3.6 08:08:52 10° NNW 08:11:58 16° WNW 08:11:58 16° WNW visible
23 Apr 2.7 06:33:45 10° NNE 06:37:43 44° NNE 06:37:43 44° NNE visible
23 Apr 3.7 08:18:36 10° NW 08:21:14 13° WNW 08:21:14 13° WNW visible
24 Apr 4.2 05:02:49 10° ENE 05:03:24 11° ENE 05:03:24 11° ENE visible
24 Apr 2.6 06:42:45 10° N 06:46:55 46° N 06:46:55 46° N visible
24 Apr 3.9 08:28:47 10° NW 08:30:09 11° WNW 08:30:26 11° WNW visible
25 Apr 4.0 05:11:02 10° NE 05:12:31 14° ENE 05:12:31 14° ENE visible
25 Apr 2.5 06:51:43 10° N 06:56:01 46° NNW 06:56:01 46° NNW visible
26 Apr 3.9 05:19:22 10° NE 05:21:33 17° ENE 05:21:33 17° ENE visible
26 Apr 2.6 07:00:37 10° N 07:05:03 43° NNW 07:05:03 43° NNW visible
27 Apr 3.7 05:27:45 10° NE 05:30:29 21° ENE 05:30:29 21° ENE visible
27 Apr 2.6 07:09:28 10° N 07:13:58 39° NW 07:13:58 39° NW visible
